[[{"header":{"parameterUnit":"m.s-1","parameterCategory":1,"la1":30.2991,"la2":30.254,"lo1":-89.0895,"lo2":-89.0444,"dy":0.0017,"dx":0.0017,"nx":28,"ny":28,"refTime":"2025-08-04T09:00:00:Z","depth":0,"parameterNumber":2,"parameterNumberName":"U-component_of_WINDS"},"data":[0,0,0,0,0,0,0,0,0,0,0,0,0,0,0,0,0,0,0,0,0,0,0,0,0,0,0,0,0,0,0,0,0,0,0,0,0,0,0,0,0,0,0,0,0,0,0,0,0,0,0,0,0,0,0,0,0,0,-3.2687,-3.2687,0,-3.2683,-3.2683,-3.2683,-3.2628,-3.2626,-3.2625,-3.2624,-3.2619,-3.262,-3.2621,0,0,0,0,0,0,0,0,0,0,0,0,0,-3.2649,-3.265,-3.2687,-3.2687,-3.2687,-3.2683,-3.2683,-3.2683,-3.2628,-3.2626,-3.2625,-3.2623,-3.2619,-3.262,-3.2621,0,0,0,0,0,0,0,0,0,0,0,0,0,-3.2657,-3.265,-3.2687,-3.2659,-3.2657,-3.2683,-3.2683,-3.2683,-3.2628,-3.2626,-3.2624,-3.2622,-3.2618,-3.262,-3.2621,-3.2674,0,0,-3.2627,-3.2628,0,0,0,0,0,0,0,0,-3.2657,-3.2658,-3.2664,-3.2661,-3.2659,-3.2654,-3.2667,-3.268,-3.2629,-3.2639,-3.2624,-3.2621,-3.2632,-3.2633,-3.2636,-3.2673,-3.2673,-3.2627,-3.2628,-3.2629,-3.2629,0,0,0,0,0,0,0,-3.2656,-3.2658,-3.2685,-3.2664,-3.2661,-3.2647,-3.2646,-3.2669,-3.2647,-3.2638,-3.2634,-3.2634,-3.263,-3.2635,-3.2636,-3.2673,-3.2627,-3.2628,-3.263,-3.263,-3.2752,-3.2754,0,0,0,0,0,0,-3.2659,-3.2658,-3.2686,-3.2685,-3.2652,-3.265,-3.2648,-3.2657,-3.2647,-3.2643,-3.2636,-3.2632,-3.2633,-3.2634,-3.2635,-3.2694,-3.2629,-3.263,-3.2631,-3.275,-3.2753,-3.2755,0,0,0,0,0,0,-3.2659,-3.2662,-3.2686,-3.2671,-3.2673,-3.2652,-3.2663,-3.2658,-3.2662,-3.2645,-3.2641,-3.2645,-3.2631,-3.2633,-3.2664,-3.2694,-3.2631,-3.2633,-3.2747,-3.2751,-3.2754,-3.2814,0,0,0,0,0,0,-3.2658,-3.2662,-3.2682,-3.2672,-3.2674,-3.2715,-3.2665,-3.266,-3.2666,-3.266,-3.2652,-3.2649,-3.263,-3.2662,-3.2666,-3.2695,-3.2634,-3.2745,-3.2749,-3.2753,-3.2809,-3.2819,-3.2827,0,0,0,0,0,-3.2657,-3.2699,-3.2683,-3.2687,-3.2698,-3.2717,-3.2718,-3.2695,-3.2668,-3.2688,-3.2677,-3.2649,-3.269,-3.2666,-3.267,-3.27,-3.2743,-3.2748,-3.2752,-3.2805,-3.2817,-3.2827,0,0,0,0,0,0,-3.2713,-3.2697,-3.2679,-3.272,-3.272,-3.2707,-3.2731,-3.2708,-3.2716,-3.271,-3.2682,-3.268,-3.2716,-3.2711,-3.2684,-3.2749,-3.2712,-3.2718,-3.275,-3.2762,-3.277,-3.277,-3.2636,0,0,0,0,0,-3.2731,-3.2748,-3.2733,-3.277,-3.2771,-3.2751,-3.2759,-3.2741,-3.274,-3.274,-3.2731,-3.2731,-3.2744,-3.2753,-3.2764,-3.2809,-3.2806,-3.2832,-3.2841,-3.2848,-3.2853,-3.2876,-3.2887,-3.2771,-3.2771,-3.2771,0,0,-3.2766,-3.276,-3.2772,-3.2781,-3.2779,-3.2797,-3.2751,-3.2772,-3.2785,-3.2743,-3.2771,-3.2766,-3.2764,-3.2802,-3.2819,-3.2799,-3.2885,-3.2855,-3.2861,-3.2861,-3.2882,-3.2893,-3.2903,-3.2774,-3.2774,-3.2773,0,0,-3.284,-3.2837,-3.2867,-3.2866,-3.2864,-3.2851,-3.2858,-3.2849,-3.2843,-3.2872,-3.2841,-3.2856,-3.2879,-3.2878,-3.2881,-3.2956,-3.293,-3.2961,-3.3007,-3.3029,-3.3038,-3.3046,-3.3071,-3.3081,-3.2966,-3.2966,-3.2966,0,-3.2884,-3.2909,-3.2886,-3.2908,-3.2913,-3.2876,-3.2906,-3.2907,-3.2908,-3.2912,-3.2891,-3.2919,-3.2915,-3.2952,-3.2971,-3.2975,-3.2982,-3.296,-3.3039,-3.3047,-3.3054,-3.3077,-3.3087,-3.297,-3.2969,-3.2969,-3.2969,0,-3.2963,-3.2982,-3.3006,-3.3009,-3.3016,-3.3043,-3.3023,-3.3033,-3.3016,-3.3005,-3.3034,-3.3029,-3.3038,-3.3046,-3.3029,-3.3081,-3.3069,-3.3044,-3.3005,-3.3069,-3.309,-3.3099,-3.2975,-3.2973,-3.2972,-3.2972,0,0,-3.307,-3.306,-3.3069,-3.3069,-3.3065,-3.3078,-3.3103,-3.3112,-3.3121,-3.3124,-3.3144,-3.3165,-3.3141,-3.3145,-3.3128,-3.3148,-3.3206,-3.312,-3.312,-3.3135,-3.3261,-3.3278,-3.3289,-3.319,-3.3192,-3.3193,-3.3261,0,-3.314,-3.3181,-3.316,-3.3204,-3.322,-3.3186,-3.3208,-3.3208,-3.3199,-3.3211,-3.3201,-3.3216,-3.3185,-3.3187,-3.3205,-3.3195,-3.323,-3.319,-3.3207,-3.3208,-3.3206,-3.3301,-3.3319,-3.3383,-3.3269,-3.3271,-3.3272,0,-3.3225,-3.3232,-3.3277,-3.3269,-3.3275,-3.3295,-3.3301,-3.3314,-3.3313,-3.3305,-3.3309,-3.3288,-3.3311,-3.3275,-3.3307,-3.328,-3.3286,-3.3282,-3.3284,-3.3283,-3.3242,-3.33,-3.3403,-3.3412,-3.3285,-3.3284,-3.3283,0,-3.3296,-3.3317,-3.3346,-3.3348,-3.334,-3.3354,-3.3352,-3.3349,-3.3355,-3.3361,-3.3365,-3.3374,-3.3378,-3.3386,-3.3367,-3.3343,-3.3401,-3.3363,-3.3394,-3.3395,-3.3406,-3.3405,-3.3509,-3.3414,-3.3414,-3.3414,-3.3413,0,-3.3375,-3.3403,-3.3378,-3.3396,-3.3427,-3.3404,-3.3435,-3.3429,-3.3427,-3.3443,-3.3415,-3.3431,-3.3406,-3.3419,-3.3405,-3.3433,-3.3436,-3.3429,-3.3425,-3.3431,-3.3431,-3.3432,-3.3427,-3.3416,-3.3416,-3.3415,-3.3415,0,-3.3458,-3.3442,-3.3472,-3.3462,-3.3461,-3.3484,-3.3476,-3.3492,-3.3482,-3.3502,-3.3506,-3.3489,-3.3504,-3.3486,-3.3499,-3.349,-3.3527,-3.3517,-3.3527,-3.3523,-3.3554,-3.3551,-3.3661,-3.3674,-3.3573,-3.3574,-3.3574,0,-3.3508,-3.3529,-3.3522,-3.353,-3.353,-3.3544,-3.3551,-3.3529,-3.3537,-3.3538,-3.3554,-3.3566,-3.3574,-3.3599,-3.3588,-3.3597,-3.3586,-3.3624,-3.3587,-3.3592,-3.3584,-3.3582,-3.3584,-3.3631,-3.3632,-3.3633,-3.3634,0,-3.3597,-3.3588,-3.3599,-3.3607,-3.3616,-3.3621,-3.3624,-3.3633,-3.3611,-3.3621,-3.3635,-3.3642,-3.3655,-3.3667,-3.3674,-3.3671,-3.3648,-3.3646,-3.3653,-3.3658,-3.3662,-3.3658,-3.3545,-3.3643,-3.3642,-3.3641,-3.3641,-3.364,-3.3664,-3.368,-3.3678,-3.3691,-3.3691,-3.3695,-3.3709,-3.3701,-3.3712,-3.3721,-3.3708,-3.3726,-3.3725,-3.3731,-3.3731,-3.3745,-3.3728,-3.3739,-3.3742,-3.3744,-3.3748,-3.3662,-3.3746,-3.3746,-3.3746,-3.3745,-3.3745,0,-3.375,-3.3747,-3.3759,-3.3764,-3.3774,-3.3753,-3.3756,-3.3765,-3.3781,-3.3782,-3.3791,-3.3807,-3.3819,-3.3809,-3.3819,-3.3831,-3.3821,-3.3834,-3.3832,-3.3832,-3.3763,-3.3755,-3.3842,-3.3842,-3.3842,-3.3842,-3.3842,-3.3842,-3.3795,-3.3823,-3.3814,-3.3841,-3.3838,-3.3855,-3.3858,-3.3861,-3.3861,-3.3881,-3.389,-3.3884,-3.3881,-3.389,-3.39,-3.3897,-3.3901,-3.3917,-3.3911,-3.3846,-3.3836,-3.3827,-3.3819,-3.3919,-3.3919,-3.3978,-3.3978,-3.3979]},{"header":{"parameterUnit":"m.s-1","parameterCategory":1,"la1":30.2991,"la2":30.254,"lo1":-89.0895,"lo2":-89.0444,"dy":0.0017,"dx":0.0017,"nx":28,"ny":28,"refTime":"2025-08-04T09:00:00:Z","depth":0,"parameterNumber":3,"parameterNumberName":"V-component_of_WINDS"},"data":[0,0,0,0,0,0,0,0,0,0,0,0,0,0,0,0,0,0,0,0,0,0,0,0,0,0,0,0,0,0,0,0,0,0,0,0,0,0,0,0,0,0,0,0,0,0,0,0,0,0,0,0,0,0,0,0,0,0,2.048,2.0479,0,2.0315,2.0313,2.0311,2.0194,2.0193,2.0192,2.0191,2.0017,2.0013,2.001,0,0,0,0,0,0,0,0,0,0,0,0,0,2.0693,2.0689,2.0481,2.0478,2.0476,2.0315,2.0313,2.031,2.0194,2.0193,2.0192,2.0191,2.0018,2.0014,2.0009,0,0,0,0,0,0,0,0,0,0,0,0,0,2.0571,2.0688,2.0481,2.0399,2.039,2.0315,2.0313,2.031,2.0195,2.0193,2.0192,2.0191,2.002,2.0014,2.0009,2.0,0,0,1.9991,1.9989,0,0,0,0,0,0,0,0,2.0578,2.0563,2.0413,2.0405,2.0394,2.0274,2.0323,2.0206,2.0195,2.0269,2.0191,2.019,2.0103,2.0091,2.0062,1.9992,1.9985,1.9991,1.9987,1.9985,1.9983,0,0,0,0,0,0,0,2.0587,2.057,2.0415,2.0411,2.04,2.0369,2.0351,2.0301,2.0195,2.0262,2.0253,2.0236,2.0098,2.0068,2.0057,1.9982,1.9991,1.9986,1.9982,1.998,1.9897,1.9898,0,0,0,0,0,0,2.0609,2.0578,2.042,2.041,2.0485,2.0367,2.0346,2.0314,2.0196,2.0176,2.0237,2.0231,2.0078,2.0064,2.0051,2.0032,1.9985,1.9979,1.9976,1.9896,1.9897,1.9898,0,0,0,0,0,0,2.0614,2.0596,2.0427,2.0491,2.0467,2.0365,2.033,2.0311,2.0281,2.0177,2.0157,2.0226,2.0077,2.0059,2.0014,2.0025,1.9977,1.9972,1.9894,1.9896,1.9898,1.9997,0,0,0,0,0,0,2.062,2.0598,2.0595,2.0492,2.0465,2.0394,2.033,2.0309,2.0272,2.0263,2.0161,2.0143,2.0074,2.0023,2.0008,2.0016,1.9967,1.9893,1.9895,1.9897,1.9992,2.0002,2.001,0,0,0,0,0,2.0628,2.0628,2.0595,2.0577,2.0458,2.0395,2.0379,2.0301,2.0274,2.0269,2.0202,2.0146,2.0027,2.002,2.0002,2.0008,1.9892,1.9894,1.9897,1.9988,2.0,2.001,0,0,0,0,0,0,2.0732,2.0613,2.0575,2.0542,2.048,2.0375,2.0366,2.0316,2.0259,2.0252,2.0157,2.0135,2.01,2.005,2.0044,1.9994,1.9952,1.9952,2.0028,2.0038,2.0047,2.0059,1.9962,0,0,0,0,0,2.0752,2.0712,2.0609,2.059,2.0561,2.047,2.0439,2.0386,2.0316,2.0289,2.0218,2.0152,2.0099,2.0066,2.0012,1.9986,1.9961,1.9981,1.999,1.9998,1.9998,1.9979,1.9986,1.9907,1.9907,1.9907,0,0,2.0791,2.0721,2.0701,2.061,2.0555,2.0514,2.0448,2.0408,2.0376,2.0282,2.0235,2.0182,2.0101,2.0066,2.0047,2.0023,2.0015,2.0002,2.0009,2.0004,1.9983,1.999,1.9997,1.9909,1.9909,1.9909,0,0,2.0841,2.0785,2.0763,2.071,2.0629,2.0568,2.0564,2.0467,2.0428,2.0381,2.0309,2.027,2.0182,2.0127,2.0088,2.0121,2.0067,2.0106,2.0152,2.0135,2.0141,2.0146,2.0156,2.0161,2.0106,2.0107,2.0107,0,2.0899,2.0836,2.0757,2.0721,2.0682,2.0598,2.0574,2.0526,2.0431,2.0406,2.0382,2.0269,2.0209,2.0159,2.0168,2.014,2.0129,2.0115,2.0147,2.0151,2.0154,2.0163,2.0167,2.0112,2.0111,2.0111,2.011,0,2.0911,2.0869,2.086,2.0773,2.0733,2.0704,2.0619,2.0589,2.0539,2.0481,2.0434,2.036,2.0289,2.0274,2.0224,2.0217,2.0204,2.0165,2.0121,2.0168,2.0174,2.0177,2.0119,2.0117,2.0116,2.0114,0,0,2.1019,2.089,2.0888,2.0847,2.0752,2.0717,2.0684,2.0617,2.0592,2.053,2.0498,2.0427,2.039,2.0346,2.029,2.0276,2.0305,2.0237,2.0234,2.0251,2.029,2.0319,2.0324,2.027,2.027,2.027,2.0296,0,2.1053,2.0989,2.0918,2.0878,2.0838,2.0758,2.0729,2.0667,2.0613,2.057,2.0509,2.0459,2.0416,2.0388,2.0371,2.0305,2.0311,2.0302,2.0237,2.0236,2.0257,2.0327,2.0357,2.0385,2.0298,2.0299,2.0299,0,2.1082,2.1026,2.0984,2.0894,2.0874,2.0849,2.0782,2.0742,2.067,2.0632,2.0584,2.0525,2.0485,2.0449,2.0391,2.0387,2.0356,2.032,2.0319,2.0308,2.0268,2.0315,2.0392,2.0395,2.0302,2.0302,2.0302,0,2.1163,2.1077,2.104,2.1008,2.0902,2.0887,2.0842,2.0769,2.0734,2.0675,2.065,2.0588,2.0553,2.0505,2.043,2.0411,2.038,2.0337,2.0345,2.0347,2.0339,2.034,2.041,2.0325,2.0325,2.0325,2.0325,0,2.1206,2.1183,2.1075,2.1052,2.1023,2.0942,2.0915,2.0863,2.08,2.0764,2.0692,2.066,2.0565,2.0521,2.0462,2.0423,2.0408,2.0374,2.0358,2.0379,2.0383,2.0356,2.0351,2.0326,2.0325,2.0325,2.0325,0,2.129,2.1217,2.1171,2.1076,2.1052,2.1035,2.0953,2.0927,2.087,2.0826,2.0811,2.0721,2.0666,2.0588,2.0509,2.0469,2.0437,2.0413,2.0462,2.0452,2.0463,2.0463,2.0515,2.0517,2.0434,2.0435,2.0436,0,2.1321,2.1301,2.1205,2.1177,2.1135,2.1091,2.1055,2.0975,2.094,2.0858,2.0842,2.0783,2.073,2.0646,2.0572,2.0512,2.0484,2.0507,2.0474,2.0496,2.0482,2.0483,2.048,2.0514,2.0515,2.0516,2.0517,0,2.1384,2.1349,2.1301,2.124,2.12,2.1148,2.1092,2.1073,2.0981,2.0945,2.0889,2.0849,2.077,2.0711,2.0641,2.0592,2.0539,2.0529,2.0527,2.0546,2.0574,2.0557,2.0481,2.0527,2.0526,2.0525,2.0525,2.0524,2.144,2.1419,2.1348,2.1297,2.1247,2.1197,2.1169,2.1109,2.1062,2.0992,2.0948,2.0894,2.0823,2.0724,2.0679,2.0634,2.0612,2.061,2.0609,2.0609,2.0616,2.0585,2.0622,2.0621,2.0621,2.062,2.062,0,2.1497,2.1448,2.1402,2.1328,2.1287,2.1244,2.1181,2.1149,2.1103,2.1043,2.0994,2.093,2.0873,2.0796,2.0733,2.0713,2.0687,2.0699,2.0698,2.0687,2.064,2.0647,2.0721,2.0721,2.0721,2.0721,2.0721,2.0721,2.1522,2.1483,2.1441,2.1377,2.1328,2.1276,2.1243,2.1197,2.1148,2.1081,2.1034,2.0985,2.0918,2.085,2.0795,2.0774,2.0753,2.0773,2.0744,2.07,2.0691,2.0682,2.0688,2.0769,2.0769,2.0794,2.0795,2.0795]}]]